Temperature
23 22 21 21 24 26 27 29 30 29 29 29 28 27 26 25 24 22 21 21 20 20 20 19 19 19 19 19 19 19 19 19 19 19 19 19 19 19 18 19 18 18 18 18 19 19 19 19 19
22 22 22 23 26 26 28 29 29 29 29 29 28 27 26 25 23 22 21 21 20 20 19 19 19 19 19 19 19 19 19 19 19 19 18 19 19 18 18 18 18 18 18 18 18 19 18 19 19
23 23 24 26 28 28 29 30 30 30 29 29 28 27 26 24 23 22 21 21 20 20 19 20 19 19 19 19 19 19 19 19 19 19 19 19 19 18 18 18 18 18 18 18 18 18 18 18 19
23 25 26 28 29 30 31 31 31 30 30 29 28 26 24 24 23 22 21 21 20 20 20 20 19 19 19 19 19 19 19 19 19 19 19 19 19 19 19 18 18 18 18 18 18 18 18 18 18
24 27 28 28 30 31 32 31 31 30 30 28 27 25 24 23 22 22 21 21 21 20 20 20 20 19 19 19 19 19 19 19 19 19 19 19 19 19 19 18 18 18 18 18 18 18 18 18 19
27 29 28 29 31 31 32 31 31 30 30 29 27 25 23 23 22 22 22 21 21 20 20 20 20 20 19 19 19 19 19 19 19 19 19 19 19 19 19 19 19 19 18 18 18 18 18 19 19
28 29 29 31 31 31 32 31 31 30 30 29 28 26 24 23 23 22 22 22 21 20 20 20 20 20 20 19 19 19 19 19 19 19 19 19 19 19 19 19 19 19 19 19 19 19 19 19 19
30 30 31 32 31 31 32 32 31 30 30 29 28 27 24 23 23 23 22 22 21 21 20 20 20 20 20 20 20 19 19 19 19 19 19 19 19 19 19 19 19 19 19 19 19 19 19 19 19
31 30 31 32 31 31 32 32 31 30 29 29 28 26 25 24 23 23 22 22 21 21 20 20 20 20 19 19 20 19 19 19 19 19 19 19 19 19 19 19 19 19 19 19 19 19 19 19 19
32 30 32 33 33 33 33 32 31 30 29 28 27 25 24 24 23 23 23 22 22 21 21 20 20 20 20 19 19 19 19 19 19 19 19 19 19 19 19 19 19 19 19 19 19 19 19 19 19
33 32 33 34 33 33 33 32 32 31 30 28 27 25 25 24 24 24 23 23 22 22 21 21 20 20 20 20 19 19 19 19 19 19 19 19 19 19 19 19 19 19 19 19 19 19 19 19 19
33 34 34 34 33 33 33 33 32 31 30 29 27 26 25 25 25 24 24 23 22 22 22 21 21 20 20 20 20 19 19 19 19 19 19 19 19 19 19 19 19 19 19 19 19 19 19 19 19
34 34 34 34 33 33 33 32 31 31 30 28 27 26 26 25 25 25 24 23 23 22 21 21 21 20 20 20 20 20 20 20 20 20 19 19 19 19 19 19 19 19 19 19 19 19 19 19 19
34 34 34 34 33 33 33 32 31 30 29 28 27 27 26 26 25 25 24 23 23 22 21 21 21 20 20 20 20 20 20 20 20 20 19 19 19 19 19 19 19 19 19 19 19 19 19 19 19
34 33 33 33 33 33 32 31 31 30 29 28 28 27 26 26 25 24 24 23 23 22 21 21 21 20 20 20 20 20 20 20 20 19 19 19 19 19 19 19 19 19 19 19 19 19 19 19 19
33 32 31 33 34 33 32 29 30 30 29 29 28 27 26 26 25 25 24 23 22 22 21 21 21 20 20 20 20 20 20 20 20 19 19 19 19 19 19 19 19 19 19 19 19 19 19 19 19
32 32 32 33 34 34 32 30 31 30 30 29 28 27 27 26 25 25 24 23 22 22 21 21 21 20 20 20 20 20 20 20 20 19 19 19 19 19 19 19 19 19 19 19 19 19 19 19 19
32 32 32 33 34 34 32 32 32 31 31 30 29 28 27 26 25 25 24 23 22 22 21 21 20 20 20 20 20 20 20 20 19 19 19 19 19 19 19 19 19 19 19 19 19 19 19 19 19
33 33 32 33 34 34 33 32 32 32 31 30 29 28 27 27 26 25 24 23 22 22 21 21 20 20 20 20 20 20 20 19 19 19 19 19 19 19 19 19 19 19 19 19 19 19 19 19 19
33 33 33 33 34 34 33 32 32 32 32 31 30 29 28 27 26 25 24 24 23 22 21 21 21 20 20 20 20 20 20 20 19 19 19 19 19 19 19 19 19 19 19 19 19 19 19 19 19
33 33 33 33 34 34 32 30 31 31 32 31 30 30 29 28 26 25 24 24 23 22 22 21 21 20 20 20 20 20 20 20 20 19 19 19 19 19 19 19 19 19 19 19 19 19 18 19 19
33 34 34 34 33 32 32 29 30 30 31 31 31 30 29 28 27 26 25 24 24 23 22 21 21 20 20 20 20 20 19 19 19 19 19 19 19 19 19 19 19 19 19 19 18 18 18 18 19
34 35 35 34 33 32 32 30 30 30 29 31 31 30 30 29 28 26 25 25 24 23 22 22 21 21 20 20 20 20 20 20 19 19 19 19 19 19 19 19 19 19 18 19 18 18 18 18 18
35 34 34 33 32 30 31 30 29 30 29 30 31 30 30 29 28 27 26 25 24 23 22 22 21 21 20 20 20 20 20 20 19 19 19 19 19 19 19 19 19 19 18 18 18 18 18 18 18
34 33 31 29 28 29 30 30 30 31 32 32 31 31 30 29 28 27 26 25 24 23 23 22 21 21 20 20 20 19 19 19 19 19 19 19 19 19 19 19 19 19 18 18 18 18 18 18 18
33 33 30 28 28 29 30 30 31 33 32 32 31 31 30 29 28 27 26 25 24 23 23 22 21 21 21 20 20 20 19 19 19 19 19 19 19 19 19 19 19 19 18 18 18 18 18 18 18
32 32 33 31 30 30 30 30 30 31 31 31 31 30 30 29 28 27 26 25 24 23 23 22 21 21 20 20 20 20 20 19 19 19 19 19 19 19 19 19 19 18 18 18 18 18 18 18 18
34 33 33 31 29 29 29 29 28 29 30 31 30 30 29 29 28 27 26 25 24 23 23 22 22 21 21 20 20 20 20 19 19 19 19 19 19 19 19 19 18 18 18 18 18 18 18 17 17
32 33 32 32 31 29 28 29 31 29 30 30 30 29 29 28 28 27 26 25 24 23 23 22 21 21 21 20 20 19 19 19 19 19 19 19 19 19 18 18 18 18 18 18 18 18 17 17 17
33 33 32 31 30 30 30 29 31 31 31 31 30 29 28 28 27 26 26 25 24 23 22 22 21 21 20 20 20 19 19 19 19 19 19 18 18 18 18 18 18 18 18 17 17 17 17 17 17
Wind_Speed
10 10 9 5 4 1 10 13 14 13 13 13 13 12 14 14 9 8 8 11 13 13 13 14 14 14 14 15 14 14 14 14 13 13 13 13 12 11 11 10 10 10 10 9 9 8 7 7 7
9 10 7 4 1 6 10 12 13 12 11 11 13 15 16 15 13 11 10 12 14 14 14 14 14 13 14 14 14 14 14 13 13 13 12 12 11 11 10 9 9 9 9 9 8 8 7 7 6
10 11 5 3 4 9 11 11 11 11 10 11 13 14 12 11 12 9 11 13 14 15 15 15 14 13 13 14 14 14 13 13 13 12 11 11 10 10 9 9 8 8 8 8 8 7 7 6 6
6 6 4 1 8 11 11 11 11 12 12 12 12 11 11 10 11 12 13 14 16 16 16 15 14 14 14 14 13 13 13 12 12 11 10 10 9 9 8 8 8 8 7 7 7 6 6 5 4
8 4 2 3 10 12 11 11 11 11 12 15 16 14 13 13 15 15 13 14 15 16 16 15 15 15 15 14 13 13 12 12 12 11 9 8 8 8 8 8 7 7 7 6 6 5 5 4 3
5 3 0 5 10 11 10 10 10 11 12 14 16 15 11 12 13 13 13 13 14 15 15 16 16 15 15 14 12 12 11 10 10 9 9 7 7 7 7 7 7 7 6 6 5 4 4 3 3
7 3 1 6 10 10 9 10 10 11 11 11 13 14 11 12 12 12 13 13 13 14 14 14 15 14 14 13 12 12 11 9 9 8 8 7 7 7 6 6 6 6 6 5 5 5 4 4 4
6 2 3 7 9 10 9 10 10 11 10 9 10 11 13 13 13 13 12 12 11 11 12 13 14 14 14 12 12 11 10 9 8 8 8 7 7 8 9 8 8 7 7 6 6 6 6 6 6
5 2 4 7 8 7 8 9 9 10 12 12 13 16 16 17 15 14 12 11 10 10 9 11 12 11 12 13 13 12 11 10 9 8 9 9 8 7 8 9 10 9 8 8 8 7 7 7 9
1 1 5 6 7 7 8 8 8 9 12 14 16 18 18 16 15 14 13 12 11 10 10 9 10 10 10 9 11 10 10 10 9 8 8 8 7 6 6 9 11 11 10 9 10 10 9 9 8
1 3 3 6 7 6 7 7 8 9 10 13 16 17 16 15 14 12 12 12 11 10 9 10 9 7 7 6 7 5 5 8 8 8 7 6 5 5 6 6 7 9 10 8 8 9 9 8 6
1 2 2 4 5 5 5 7 9 9 11 14 16 16 15 14 12 12 12 12 11 10 9 9 9 7 5 4 4 4 3 4 4 6 5 3 2 1 3 3 4 5 6 6 6 5 6 6 5
1 1 2 2 4 5 6 8 9 11 13 16 16 15 14 13 11 10 11 11 10 10 9 9 8 7 5 3 1 3 2 2 4 5 4 3 2 1 1 1 2 3 4 4 3 3 2 2 3
2 1 2 2 4 5 5 6 8 10 13 15 15 13 12 12 11 11 10 10 9 9 8 8 8 7 5 3 2 1 2 2 3 4 5 3 2 1 1 1 1 1 2 3 4 3 2 2 2
4 2 2 3 4 5 5 3 6 10 13 14 13 12 12 12 11 11 11 10 10 8 7 7 8 8 5 4 4 3 3 3 2 3 5 3 2 2 2 2 2 1 2 3 3 2 2 3 2
6 5 5 6 6 6 6 5 7 11 13 13 13 12 11 11 11 11 11 10 10 9 7 6 7 9 6 3 3 2 1 2 1 3 4 3 2 3 2 2 2 2 3 2 2 2 2 1 1
9 7 7 6 5 5 5 6 12 13 13 13 13 13 12 11 11 10 11 11 10 9 8 5 4 6 6 4 3 2 1 1 1 2 3 3 2 2 2 1 1 3 2 1 1 1 1 1 1
7 6 5 4 5 5 4 6 11 14 13 13 13 13 13 13 12 12 11 12 11 10 9 7 5 5 5 4 3 2 1 1 1 2 2 3 3 3 2 2 3 2 1 1 1 0 1 1 2
9 7 6 4 4 4 4 6 8 12 13 13 13 14 14 13 13 13 12 12 12 11 10 8 7 6 4 4 3 2 2 2 1 2 3 3 2 3 2 2 2 2 1 1 1 1 2 2 1
10 9 6 5 5 3 2 2 6 10 12 13 15 14 15 14 13 13 12 12 13 12 10 9 8 7 6 4 3 2 2 3 2 1 3 3 2 2 3 2 2 2 1 2 1 1 1 2 2
11 9 8 7 5 5 3 4 5 7 9 12 13 14 14 15 15 14 13 12 12 12 11 10 9 8 7 5 4 3 2 2 2 2 2 2 2 3 1 2 2 2 2 2 2 2 3 2 1
10 10 10 8 8 7 6 5 6 8 9 12 13 13 13 14 14 14 13 13 13 13 12 9 8 7 7 6 5 5 4 3 2 2 2 3 2 2 2 1 1 1 1 1 2 2 2 2 2
11 11 10 9 10 10 7 7 7 9 9 11 12 13 14 14 14 14 13 12 11 12 12 10 9 7 7 6 6 5 4 3 2 2 3 3 3 2 2 2 2 2 1 1 1 1 1 1 2
11 11 10 9 9 11 10 9 6 8 11 12 13 13 12 13 13 13 12 11 10 10 10 10 9 8 7 7 6 6 4 4 3 3 3 3 3 3 3 3 2 2 1 1 2 2 2 2 2
13 11 7 7 8 10 10 7 5 8 11 11 12 13 13 12 12 12 11 11 9 9 9 9 9 8 7 7 6 5 5 4 4 4 3 3 3 2 2 2 3 3 2 2 2 2 3 3 2
12 12 10 9 9 9 8 7 6 6 6 8 9 11 12 12 11 10 11 10 9 9 9 9 9 8 7 7 5 4 4 4 4 4 4 3 2 2 2 3 3 3 2 2 2 2 3 2 3
13 13 13 12 12 10 6 3 1 3 6 8 9 9 10 10 10 9 10 10 10 8 8 9 9 8 7 7 6 5 5 4 3 3 3 2 1 2 3 3 2 2 2 2 2 2 3 2 3
15 14 10 9 8 9 6 5 4 6 7 8 7 7 8 9 9 9 9 9 10 9 8 8 9 8 7 6 5 5 5 4 3 3 3 2 2 1 2 2 2 2 1 2 2 2 2 2 3
13 14 11 9 9 9 7 5 5 9 10 10 9 8 8 8 9 9 9 8 8 8 8 7 7 8 7 6 5 4 5 5 4 4 3 3 2 2 2 2 2 2 2 2 2 2 3 2 3
13 14 14 11 10 10 9 4 2 3 5 7 8 8 8 6 7 8 8 8 7 6 6 5 5 6 6 5 4 4 4 4 4 4 4 4 3 2 2 3 3 3 2 2 2 3 3 3 3
Wind_Direction
191 207 213 239 247 59 61 58 56 57 59 58 60 70 68 58 67 91 108 109 107 108 110 110 107 107 108 112 111 110 111 113 112 111 111 109 108 110 115 114 113 112 112 113 113 113 112 112 111
216 217 226 245 272 67 67 67 64 61 69 73 67 69 72 67 78 100 110 112 111 113 112 108 109 110 112 114 112 111 112 112 112 111 112 113 113 112 111 113 116 116 116 115 114 114 116 117 120
243 244 253 245 61 69 70 71 75 76 73 82 79 62 61 74 86 103 117 118 113 109 107 108 109 113 119 118 116 115 115 116 116 116 116 115 116 115 114 114 117 118 117 117 117 118 123 124 126
241 234 245 317 69 70 75 79 81 82 71 70 81 77 72 76 97 111 121 120 115 112 111 111 109 112 119 121 121 119 119 118 118 118 118 117 118 119 120 120 122 124 126 127 124 123 122 125 133
241 260 251 66 78 79 77 80 83 84 82 83 85 90 86 88 105 117 122 118 116 114 113 117 114 112 115 117 120 122 120 120 120 121 121 123 126 127 128 127 129 131 132 131 130 131 133 138 152
260 248 262 88 83 83 83 84 82 83 94 100 100 99 95 106 115 122 122 119 118 117 118 122 122 122 120 121 121 122 123 124 127 131 133 136 139 140 142 143 142 141 140 140 143 148 159 173 192
260 301 17 80 89 85 85 86 84 86 85 95 106 106 115 123 128 124 121 120 119 122 126 131 133 132 130 130 129 128 131 135 138 144 150 150 152 156 158 164 161 158 155 157 164 173 187 200 215
259 311 37 73 83 84 85 86 86 89 84 95 108 113 129 135 135 127 125 119 119 123 128 136 137 140 141 140 141 141 143 148 155 159 165 169 176 181 180 180 176 173 172 179 186 194 206 220 232
272 332 44 71 84 90 92 92 93 96 93 81 83 110 129 136 135 135 131 128 125 124 133 136 139 145 144 145 147 155 155 164 174 179 184 188 194 192 187 182 175 179 184 191 196 206 220 229 236
210 52 51 63 85 93 93 100 110 110 106 99 100 113 130 140 143 143 141 140 136 135 137 138 139 142 146 142 146 167 166 170 185 180 180 193 200 199 175 164 177 184 191 198 204 213 224 232 230
72 90 58 73 85 90 93 99 96 104 112 122 125 131 139 145 147 144 143 144 142 145 145 141 136 135 137 133 148 163 161 165 178 175 179 191 189 170 154 160 176 189 197 203 200 210 223 227 231
109 108 88 84 94 101 95 92 92 94 107 122 129 137 143 149 149 147 146 143 142 145 144 139 138 133 126 122 135 160 170 162 159 161 178 171 175 183 157 167 175 191 195 198 201 214 223 231 230
190 136 90 100 115 100 94 91 91 97 109 119 129 139 148 149 147 139 135 140 141 139 140 134 124 118 114 111 171 159 155 148 156 162 171 182 178 143 132 148 171 193 184 185 211 229 228 247 246
255 176 158 175 150 143 120 111 113 121 124 129 137 146 151 148 145 139 141 142 137 134 135 129 132 132 137 158 206 186 172 163 166 155 149 171 139 125 147 193 235 221 187 188 207 220 218 231 237
280 272 265 228 207 157 127 105 131 142 138 139 146 151 150 151 148 152 151 148 142 138 135 137 149 145 160 178 196 190 189 160 150 140 139 158 149 147 200 186 207 218 205 203 201 214 210 225 228
258 244 239 222 201 163 156 162 175 156 150 149 151 151 153 154 158 156 150 148 143 143 143 166 162 149 160 183 198 204 181 127 147 138 138 155 168 180 205 197 182 206 209 194 193 191 213 219 239
253 243 233 224 207 179 180 159 163 166 156 156 156 157 160 162 164 156 155 152 148 145 148 164 151 148 160 177 201 207 152 143 166 129 132 148 172 175 195 221 176 215 199 195 219 153 203 220 232
260 267 253 243 214 192 184 158 160 165 163 163 164 163 166 170 171 164 164 158 154 152 156 165 160 154 165 175 209 195 158 189 179 135 141 163 178 182 193 193 205 221 168 156 107 139 239 228 243
264 272 266 268 241 213 197 163 163 172 169 168 167 169 172 174 170 167 169 165 161 160 162 168 172 168 178 184 201 186 174 198 180 165 161 154 179 189 197 209 205 218 173 161 168 208 240 235 235
258 262 264 271 258 232 201 190 176 179 180 173 171 176 175 172 167 166 172 170 168 166 169 170 175 179 195 192 195 191 193 202 176 183 145 143 179 196 192 194 215 205 170 169 197 200 274 268 218
257 262 262 263 270 248 197 248 205 197 193 174 171 175 173 173 170 169 175 177 172 169 173 180 180 182 196 193 195 197 189 213 180 165 156 161 184 184 228 176 212 216 193 177 193 210 228 247 254
264 264 265 267 263 256 233 240 213 188 201 179 173 173 174 174 171 172 177 181 178 173 174 171 170 178 183 188 194 199 202 213 195 177 162 177 185 188 198 182 229 231 231 185 217 205 248 255 262
266 271 276 274 270 267 252 248 219 180 194 182 177 178 177 175 173 173 177 180 178 174 172 168 167 173 177 188 195 209 207 204 199 180 185 196 189 185 193 176 220 232 216 219 233 251 266 267 271
265 268 270 278 277 266 260 256 221 192 191 189 182 176 174 173 172 168 171 167 170 168 166 164 163 171 178 188 195 203 210 204 199 196 195 210 201 195 196 189 201 219 223 234 212 236 242 262 293
250 254 260 264 257 258 259 255 223 192 185 183 175 170 171 168 165 165 165 161 161 161 161 158 160 169 176 183 192 194 203 204 201 209 206 217 210 197 194 195 199 210 213 227 221 241 245 238 249
251 247 246 257 259 258 245 236 209 170 152 151 157 157 160 160 162 159 163 160 159 163 161 159 160 170 177 181 189 184 192 211 211 214 217 218 216 184 185 177 193 210 216 230 230 240 249 236 241
251 251 253 259 265 268 264 259 130 128 144 152 153 152 156 154 154 153 154 156 158 166 164 163 159 165 174 181 182 181 191 213 216 215 224 218 229 196 179 176 179 196 201 215 226 242 243 233 234
247 258 264 257 266 277 269 262 208 196 173 164 161 166 153 145 150 153 155 153 158 169 165 159 158 165 169 171 182 189 194 201 205 218 216 226 215 216 176 180 179 184 204 213 213 239 241 238 247
237 243 252 265 264 267 265 259 210 190 179 177 171 166 153 150 155 155 150 151 152 156 157 157 154 162 168 172 177 180 186 196 203 210 207 221 229 212 192 193 200 205 209 213 224 243 241 234 254
247 252 253 256 263 269 273 259 230 191 163 164 154 139 138 143 150 150 148 148 151 150 148 147 157 166 168 163 168 177 183 193 207 210 209 209 217 218 209 207 214 221 216 220 224 251 252 244 248
Height
1488 1488 1488 1491 1490 1488 1484 1477 1472 1474 1475 1478 1479 1481 1486 1489 1494 1505 1506 1504 1505 1505 1506 1507 1508 1509 1511 1513 1514 1516 1518 1520 1522 1524 1526 1528 1529 1530 1532 1533 1535 1537 1538 1539 1540 1541 1542 1543 1544
1488 1489 1492 1490 1488 1494 1488 1477 1477 1477 1478 1479 1481 1484 1488 1493 1498 1502 1505 1506 1507 1507 1508 1509 1510 1511 1513 1515 1517 1518 1520 1522 1524 1526 1528 1529 1531 1532 1533 1535 1536 1538 1539 1541 1541 1542 1543 1544 1545
1488 1491 1492 1485 1483 1488 1486 1476 1476 1478 1479 1480 1484 1489 1493 1498 1502 1504 1506 1508 1509 1509 1510 1511 1511 1511 1513 1516 1519 1521 1523 1524 1526 1528 1529 1531 1533 1534 1535 1537 1538 1539 1541 1542 1542 1543 1544 1545 1546
1489 1491 1488 1483 1483 1477 1475 1475 1475 1478 1481 1482 1485 1493 1499 1502 1504 1506 1508 1510 1511 1512 1512 1513 1512 1510 1513 1517 1521 1523 1525 1527 1528 1530 1531 1533 1534 1535 1537 1538 1539 1541 1542 1543 1544 1545 1545 1546 1547
1491 1489 1486 1485 1479 1474 1473 1475 1477 1479 1482 1486 1490 1497 1503 1506 1507 1509 1510 1512 1513 1515 1515 1516 1516 1515 1517 1521 1523 1525 1527 1529 1530 1531 1533 1534 1536 1537 1538 1539 1541 1542 1543 1544 1545 1546 1546 1547 1548
1489 1483 1488 1487 1479 1474 1474 1476 1478 1480 1483 1487 1492 1499 1506 1509 1510 1511 1513 1514 1516 1517 1517 1518 1519 1520 1522 1524 1526 1528 1529 1531 1532 1533 1535 1536 1538 1539 1540 1541 1542 1543 1544 1545 1545 1546 1547 1548 1549
1487 1482 1483 1479 1479 1478 1475 1477 1480 1482 1484 1487 1492 1499 1506 1510 1512 1513 1515 1517 1518 1519 1520 1521 1522 1523 1525 1527 1528 1530 1531 1533 1534 1535 1536 1537 1539 1540 1541 1542 1543 1543 1544 1545 1546 1547 1547 1548 1549
1481 1480 1480 1477 1480 1480 1476 1478 1481 1483 1486 1489 1491 1498 1506 1510 1513 1515 1517 1519 1520 1522 1523 1524 1525 1526 1527 1529 1530 1532 1533 1534 1536 1537 1538 1539 1539 1541 1542 1542 1543 1544 1545 1545 1546 1547 1548 1548 1549
1479 1482 1484 1478 1479 1479 1477 1479 1482 1484 1488 1490 1493 1498 1505 1510 1513 1516 1518 1520 1522 1523 1525 1526 1527 1528 1530 1531 1532 1533 1535 1536 1537 1538 1539 1540 1540 1541 1542 1543 1544 1544 1545 1546 1546 1547 1548 1549 1549
1477 1484 1479 1472 1473 1475 1477 1480 1481 1485 1489 1494 1498 1502 1506 1510 1513 1516 1518 1521 1523 1525 1527 1528 1529 1531 1532 1533 1533 1535 1536 1537 1538 1539 1540 1541 1541 1542 1543 1544 1544 1545 1545 1546 1547 1547 1548 1549 1549
1475 1479 1474 1473 1474 1475 1477 1479 1481 1485 1489 1494 1499 1503 1507 1511 1513 1516 1518 1521 1523 1525 1527 1529 1530 1532 1533 1535 1535 1536 1538 1538 1539 1540 1541 1542 1543 1543 1544 1544 1544 1545 1545 1546 1547 1547 1548 1549 1549
1475 1474 1473 1474 1475 1476 1477 1479 1482 1485 1490 1494 1499 1503 1507 1511 1513 1515 1518 1521 1523 1525 1527 1529 1530 1532 1534 1535 1536 1538 1538 1539 1540 1541 1541 1542 1543 1543 1544 1544 1544 1544 1545 1546 1546 1547 1548 1549 1549
1474 1473 1474 1474 1475 1477 1479 1481 1484 1488 1492 1496 1500 1504 1508 1511 1513 1516 1518 1521 1523 1525 1528 1529 1531 1532 1533 1535 1536 1538 1539 1540 1540 1540 1541 1542 1543 1543 1543 1544 1544 1544 1545 1545 1546 1547 1548 1548 1549
1473 1473 1474 1474 1475 1477 1479 1481 1485 1489 1493 1497 1501 1505 1508 1510 1513 1516 1518 1521 1523 1525 1527 1529 1530 1531 1533 1535 1536 1538 1539 1540 1540 1541 1541 1541 1542 1542 1543 1543 1543 1544 1544 1545 1545 1546 1547 1547 1548
1474 1475 1475 1474 1474 1475 1479 1485 1486 1489 1492 1497 1501 1504 1508 1510 1513 1516 1518 1521 1523 1525 1527 1529 1530 1531 1533 1534 1536 1537 1538 1539 1540 1540 1540 1541 1541 1541 1542 1542 1542 1543 1544 1544 1545 1546 1546 1546 1547
1474 1479 1484 1473 1471 1473 1481 1494 1487 1489 1492 1495 1500 1504 1507 1510 1513 1516 1518 1520 1523 1524 1526 1528 1531 1531 1532 1534 1535 1537 1538 1539 1539 1539 1539 1539 1540 1540 1541 1541 1542 1542 1543 1543 1544 1544 1545 1545 1546
1479 1485 1483 1475 1467 1468 1475 1484 1483 1486 1489 1493 1498 1502 1506 1510 1512 1515 1517 1520 1522 1524 1525 1527 1529 1531 1532 1533 1535 1536 1537 1537 1538 1538 1538 1538 1539 1539 1540 1540 1541 1541 1542 1542 1543 1543 1544 1544 1544
1485 1482 1478 1475 1467 1466 1473 1477 1478 1483 1486 1490 1495 1500 1504 1508 1511 1514 1516 1519 1521 1522 1524 1526 1528 1530 1531 1532 1534 1535 1536 1536 1537 1537 1537 1537 1538 1539 1539 1539 1540 1541 1541 1541 1542 1542 1543 1543 1543
1472 1475 1477 1471 1463 1466 1471 1475 1476 1480 1482 1487 1492 1497 1501 1505 1509 1512 1515 1517 1519 1521 1523 1525 1527 1528 1529 1531 1532 1533 1534 1535 1536 1536 1536 1537 1537 1538 1538 1539 1539 1540 1540 1541 1541 1541 1542 1542 1543
1469 1474 1475 1469 1462 1464 1472 1475 1473 1475 1478 1483 1488 1493 1497 1502 1506 1510 1513 1515 1517 1519 1521 1523 1525 1526 1528 1530 1531 1532 1533 1534 1535 1535 1535 1535 1536 1537 1538 1538 1538 1539 1539 1540 1540 1540 1541 1541 1542
1468 1471 1471 1471 1464 1463 1473 1483 1477 1475 1477 1480 1484 1489 1494 1498 1502 1507 1510 1513 1515 1517 1519 1521 1522 1524 1526 1528 1530 1531 1532 1533 1534 1534 1534 1535 1535 1536 1536 1537 1537 1538 1538 1539 1539 1539 1540 1540 1541
1472 1461 1461 1464 1472 1476 1473 1496 1483 1477 1476 1477 1481 1486 1490 1495 1499 1503 1507 1510 1513 1515 1517 1519 1521 1522 1524 1526 1528 1529 1531 1531 1532 1533 1533 1534 1534 1535 1535 1535 1536 1537 1537 1537 1538 1538 1539 1539 1539
1463 1457 1458 1462 1469 1476 1474 1487 1485 1474 1479 1476 1478 1482 1486 1491 1495 1500 1504 1507 1510 1513 1515 1516 1518 1520 1522 1524 1525 1527 1529 1530 1531 1531 1532 1532 1533 1533 1534 1534 1534 1535 1535 1536 1536 1537 1537 1537 1537
1456 1459 1461 1465 1475 1492 1481 1485 1487 1475 1474 1473 1474 1478 1483 1487 1492 1497 1501 1504 1508 1510 1513 1514 1515 1518 1519 1521 1523 1525 1526 1528 1529 1529 1530 1531 1531 1532 1532 1532 1532 1533 1533 1534 1534 1535 1535 1535 1535
1457 1470 1488 1499 1501 1497 1475 1479 1479 1463 1462 1465 1469 1475 1480 1484 1489 1494 1498 1502 1505 1508 1510 1512 1513 1515 1517 1519 1521 1522 1524 1525 1526 1527 1528 1529 1530 1530 1530 1530 1530 1531 1531 1532 1533 1533 1533 1533 1533
1460 1465 1490 1507 1505 1492 1476 1482 1468 1457 1460 1464 1468 1472 1477 1482 1486 1491 1495 1499 1502 1505 1508 1510 1511 1513 1515 1516 1518 1520 1522 1523 1524 1525 1526 1527 1528 1528 1528 1528 1528 1529 1529 1530 1530 1530 1531 1531 1532
1461 1462 1459 1474 1481 1488 1482 1473 1466 1460 1462 1465 1469 1472 1476 1480 1484 1489 1493 1496 1500 1503 1505 1507 1509 1511 1513 1514 1516 1518 1519 1521 1522 1523 1524 1525 1526 1526 1527 1527 1527 1527 1527 1528 1528 1528 1529 1529 1529
1452 1455 1461 1473 1492 1499 1489 1482 1481 1470 1465 1466 1469 1472 1475 1479 1484 1487 1491 1495 1498 1501 1503 1506 1507 1509 1511 1512 1514 1515 1516 1518 1519 1521 1522 1523 1524 1525 1525 1525 1525 1525 1525 1525 1526 1526 1526 1526 1527
1454 1456 1458 1462 1468 1488 1497 1489 1462 1462 1462 1464 1467 1472 1474 1479 1482 1486 1490 1493 1497 1500 1502 1504 1506 1507 1509 1511 1512 1513 1514 1516 1517 1518 1519 1520 1521 1522 1522 1523 1523 1523 1523 1523 1523 1523 1523 1523 1524
1448 1452 1456 1471 1475 1471 1479 1481 1456 1456 1458 1461 1466 1471 1475 1478 1482 1486 1489 1493 1496 1499 1501 1503 1505 1507 1508 1509 1510 1511 1512 1514 1514 1515 1516 1517 1518 1519 1520 1520 1520 1520 1521 1521 1521 1521 1521 1521 1521